DW8673 Jerrabomberra AU current weather conditions

sailwx.info

Wind from 315 at 2 knots gusting 4

Air temperature 28.9° C
Dewpoint 6.3° C

Last reported at 2014-Nov-21 23:43 UTC.
Time now 2014-Nov-22 00:15 UTC

Location: S 35°23' E 149°12'.
View on Google Maps.

See reports from other nearby stations

  
Tides and Currents Weather Stations Pressure Air Temp Water Temp Dewpoint Dewpoint Depression Visibility Wind Speed Wind Dir Waves Ship Positions
date/time (UTC)wind fromknots sea level pressurealtimeterstation pressurevisibilityair tempwater tempwave heightnotes
2014-Nov-21 23:43 315 2 gusting 4 28.9
2014-Nov-21 23:33 354 0 gusting 6 28.3
2014-Nov-21 23:13 27.2
2014-Nov-21 23:03 001 0 gusting 6 26.7
2014-Nov-21 22:43 334 1 gusting 4 25.6
2014-Nov-21 22:33 303 1 gusting 2 25.0
2014-Nov-21 22:13 331 1 gusting 5 23.3
2014-Nov-21 22:03 260 1 gusting 2 22.8
2014-Nov-21 21:43 334 1 gusting 2 21.1
2014-Nov-21 21:33 163 0 gusting 1 20.0
2014-Nov-21 21:13 099 0 gusting 1 20.0
2014-Nov-21 21:03 077 20.6
2014-Nov-21 20:43 353 0 gusting 1 18.9
2014-Nov-21 20:33 135 0 gusting 1 18.9
2014-Nov-21 20:13 076 0 gusting 1 18.3
2014-Nov-21 20:03 086 0 gusting 1 17.8
2014-Nov-21 19:43 093 0 gusting 1 17.2
2014-Nov-21 19:33 071 0 gusting 1 17.2
2014-Nov-21 19:13 112 17.2
2014-Nov-21 19:03 100 17.2
2014-Nov-21 18:43 090 0 gusting 1 17.2
2014-Nov-21 18:33 068 17.2
2014-Nov-21 18:13 315 16.7
2014-Nov-21 18:03 357 16.7
2014-Nov-21 17:43 090 16.7
2014-Nov-21 17:33 097 0 gusting 1 16.7
2014-Nov-21 17:13 135 16.7
2014-Nov-21 17:03 090 16.7
2014-Nov-21 16:43 045 0 gusting 1 16.7
2014-Nov-21 16:33 319 16.7
2014-Nov-21 16:13 114 0 gusting 1 16.7
2014-Nov-21 16:03 031 16.1
2014-Nov-21 15:43 086 0 gusting 1 16.1
2014-Nov-21 15:33 119 1 gusting 4 16.1
2014-Nov-21 15:13 319 0 gusting 1 16.1
2014-Nov-21 15:03 083 0 gusting 5 16.1
2014-Nov-21 14:43 298 0 gusting 2 16.1
2014-Nov-21 14:33 105 1 gusting 4 16.1
2014-Nov-21 14:13 101 2 gusting 4 16.7
2014-Nov-21 14:03 066 1 gusting 5 16.7
2014-Nov-21 13:43 092 0 gusting 4 16.7
2014-Nov-21 13:33 085 1 gusting 5 16.7
2014-Nov-21 13:13 090 1 gusting 5 17.2
2014-Nov-21 13:03 095 1 gusting 4 17.2
2014-Nov-21 12:43 090 2 gusting 5 17.8
2014-Nov-21 12:33 129 1 gusting 5 18.3
2014-Nov-21 12:13 117 2 gusting 5 18.9
2014-Nov-21 12:03 062 2 gusting 5 19.4
2014-Nov-21 11:43 083 1 gusting 2 20.0
2014-Nov-21 11:33 165 20.0
2014-Nov-21 11:13 102 20.0
2014-Nov-21 11:03 090 20.6
2014-Nov-21 10:43 300 0 gusting 1 21.1
2014-Nov-21 10:33 225 21.1
2014-Nov-21 10:13 045 21.7
2014-Nov-21 10:03 112 22.2
2014-Nov-21 09:43 112 22.8
2014-Nov-21 09:33 068 23.3
2014-Nov-21 09:13 275 0 gusting 2 24.4
2014-Nov-21 09:03 238 1 gusting 5 25.0
2014-Nov-21 08:43 284 1 gusting 5 26.7
2014-Nov-21 08:33 246 2 gusting 6 27.8
2014-Nov-21 08:13 234 4 gusting 6 28.9
2014-Nov-21 08:03 263 4 gusting 10 29.4
2014-Nov-21 07:43 252 4 gusting 10 30.0
2014-Nov-21 07:33 251 3 gusting 8 30.0
2014-Nov-21 07:13 281 4 gusting 8 30.6
2014-Nov-21 07:03 294 5 gusting 10 30.6
2014-Nov-21 06:43 249 4 gusting 8 31.1
2014-Nov-21 06:33 303 4 gusting 7 31.1
2014-Nov-21 06:13 354 4 gusting 10 31.1
2014-Nov-21 06:03 275 1 gusting 6 31.7
2014-Nov-21 05:43 310 3 gusting 8 32.2
2014-Nov-21 05:33 248 3 gusting 12 32.2
2014-Nov-21 05:13 287 3 gusting 12 32.8
2014-Nov-21 05:03 256 6 gusting 13 32.2
2014-Nov-21 04:43 277 6 gusting 11 32.2
2014-Nov-21 04:33 240 3 gusting 11 32.2
2014-Nov-21 04:13 294 4 gusting 13 31.7
2014-Nov-21 04:03 234 5 gusting 11 31.7
2014-Nov-21 03:43 287 4 gusting 6 32.2
2014-Nov-21 03:33 307 2 gusting 10 32.8
2014-Nov-21 03:13 250 4 gusting 12 32.2
2014-Nov-21 03:03 264 6 gusting 13 32.2
2014-Nov-21 02:43 300 5 gusting 11 32.2
2014-Nov-21 02:33 261 5 gusting 11 31.7
2014-Nov-21 02:13 298 7 gusting 14 31.7
2014-Nov-21 02:03 265 6 gusting 14 31.1
2014-Nov-21 01:43 299 5 gusting 10 31.7
2014-Nov-21 01:33 285 6 gusting 14 31.7
2014-Nov-21 01:13 269 3 gusting 8 31.7
2014-Nov-21 01:03 305 2 gusting 6 31.7
2014-Nov-21 00:43 243 4 gusting 11 31.1
2014-Nov-21 00:33 307 2 gusting 7 31.7
2014-Nov-21 00:13 262 3 gusting 13 30.6
2014-Nov-21 00:03 242 4 gusting 13 30.6
2014-Nov-20 23:43 329 3 gusting 7 30.6
2014-Nov-20 23:33 282 4 gusting 7 30.0
2014-Nov-20 23:13 310 5 gusting 6 29.4
2014-Nov-20 23:03 268 3 gusting 10 28.9
2014-Nov-20 22:43 306 3 gusting 7 27.8
2014-Nov-20 22:33 267 3 gusting 8 26.7
2014-Nov-20 22:13 345 2 gusting 6 27.8
2014-Nov-20 22:03 289 4 gusting 7 27.2
2014-Nov-20 21:43 306 2 gusting 6 26.7
2014-Nov-20 21:33 325 2 gusting 5 26.1
2014-Nov-20 21:13 113 0 gusting 1 24.4
2014-Nov-20 21:03 075 0 gusting 2 23.3
2014-Nov-20 20:43 255 0 gusting 1 22.2
2014-Nov-20 20:33 256 0 gusting 1 21.7
2014-Nov-20 20:13 250 0 gusting 1 19.4
2014-Nov-20 20:03 251 18.9
2014-Nov-20 19:43 158 17.2
2014-Nov-20 19:33 045 16.1
2014-Nov-20 19:13 158 15.6
2014-Nov-20 19:03 098 15.6
2014-Nov-20 18:43 248 15.0
2014-Nov-20 18:33 225 15.0
2014-Nov-20 18:13 225 15.0
2014-Nov-20 18:03 100 15.0
2014-Nov-20 17:43 202 15.6
2014-Nov-20 17:33 248 0 gusting 1 15.6
2014-Nov-20 17:13 225 16.7
2014-Nov-20 17:03 225 16.7
2014-Nov-20 16:43 315 17.8
2014-Nov-20 16:33 270 17.8
2014-Nov-20 16:13 202 18.3
2014-Nov-20 16:03 248 18.3
2014-Nov-20 15:43 298 18.3
2014-Nov-20 15:33 180 18.3
2014-Nov-20 15:13 112 18.9
2014-Nov-20 15:03 202 18.9
2014-Nov-20 14:43 18.9
2014-Nov-20 14:33 315 18.9
2014-Nov-20 14:13 219 18.9
2014-Nov-20 14:03 045 18.9
2014-Nov-20 13:43 270 0 gusting 1 18.9
2014-Nov-20 13:33 200 18.9
2014-Nov-20 13:13 158 18.9
2014-Nov-20 13:03 201 0 gusting 1 19.4
2014-Nov-20 12:43 208 20.0
2014-Nov-20 12:33 237 0 gusting 1 20.0
2014-Nov-20 12:13 050 20.6
2014-Nov-20 12:03 112 0 gusting 1 21.1
2014-Nov-20 11:43 147 0 gusting 1 21.1
2014-Nov-20 11:33 068 21.1
2014-Nov-20 11:13 119 21.1
2014-Nov-20 11:03 135 21.7
2014-Nov-20 10:43 112 21.7
2014-Nov-20 10:33 112 21.7
2014-Nov-20 10:13 112 22.2
2014-Nov-20 10:03 112 22.2
2014-Nov-20 09:43 090 23.3
2014-Nov-20 09:33 090 23.9
2014-Nov-20 09:13 090 25.0
2014-Nov-20 09:03 090 25.6
2014-Nov-20 08:43 030 27.2
2014-Nov-20 08:33 022 28.3
2014-Nov-20 08:13 286 1 gusting 5 30.6
2014-Nov-20 08:03 278 2 gusting 5 31.1
2014-Nov-20 07:43 289 1 gusting 4 30.0
2014-Nov-20 07:33 267 0 gusting 4 30.0
2014-Nov-20 07:13 298 1 gusting 5 30.6
2014-Nov-20 07:03 270 1 gusting 7 30.6
2014-Nov-20 06:43 223 2 gusting 7 33.3
2014-Nov-20 06:33 279 2 gusting 6 33.3
2014-Nov-20 06:13 308 2 gusting 6 33.3
2014-Nov-20 06:03 325 3 gusting 6 33.3
2014-Nov-20 05:43 296 4 gusting 6 33.9
2014-Nov-20 05:33 245 5 gusting 7 33.9
2014-Nov-20 05:13 308 2 gusting 8 33.3
2014-Nov-20 05:03 246 4 gusting 7 31.7
2014-Nov-20 04:43 258 4 gusting 7 32.2
2014-Nov-20 04:33 248 5 gusting 13 32.2
2014-Nov-20 04:13 223 6 gusting 10 33.3
2014-Nov-20 04:03 252 5 gusting 11 33.3
2014-Nov-20 03:43 008 2 gusting 8 33.3
2014-Nov-20 03:33 306 3 gusting 11 33.3
2014-Nov-20 03:13 251 4 gusting 8 33.9
2014-Nov-20 03:03 351 2 gusting 7 33.3
2014-Nov-20 02:43 323 2 gusting 8 32.8
2014-Nov-20 02:33 189 2 gusting 10 31.1
2014-Nov-20 02:13 266 3 gusting 8 32.2
2014-Nov-20 02:03 266 3 gusting 8 32.2
2014-Nov-20 01:43 294 3 gusting 8 30.0
2014-Nov-20 01:33 276 4 gusting 10 30.0
2014-Nov-20 01:13 315 3 gusting 7 30.6
2014-Nov-20 01:03 277 4 gusting 8 30.0
2014-Nov-20 00:43 357 3 gusting 6 31.1
2014-Nov-20 00:33 320 4 gusting 8 30.6
2014-Nov-20 00:13 293 4 gusting 6 30.0
2014-Nov-20 00:03 331 2 gusting 7 29.4